Location: Casteau
(50.5142°N, 4.0161°E)
Time: 02:52:58
(UTC+00:00)

Transit 2A - Pass Details

Date: 28 July 2021
Orbit: 594 x 964 km, 66.7° (Epoch: 27 September)

Event Time Altitude Azimuth Distance (km) Brightness Sun altitude
Rises 05:47:51 0° 164° (SSE) 2,828 9.0 14.1°
Reaches altitude 10° 05:50:53 10° 141° (SE) 1,955 8.6 14.6°
Maximum altitude 05:53:20 15° 106° (ESE) 1,691 9.1 14.9°
Drops below altitude 10° 05:55:51 10° 72° (ENE) 2,033 10.8 15.3°
Sets 05:59:06 0° 50° (NE) 3,013 10.2 15.8°
